ヴォルフ-ハリントン彗星

43P/Wolf-Harrington (1997)

English version
Home page
Total 6,336 html files since Dec. 4, 1995
Updated on July 8, 1998

---------------------------------------------------------------------

・ プロフィール

・ 写真集

・ 軌道要素

   The following improved orbital elements by Kenji Muraoka, 
  are from 185 observations 1984 to 1998, including 9 Planets, 
  Moon and 5 minor planets perturbations and non-gravitational 
  effect of style II.  The mean residual is +/- 0.72 arc seconds.

      Epoch  =  1997 Sept. 29.0  TT      JDT = 2450720.5
          T  =  1997 Sept. 29.21665      +/- 0.00080 (m.e.) TT
       Peri. =  187.13292                +/- 0.00025
       Node  =  254.75600                +/- 0.00007   (2000.0)
       Incl. =   18.51038                +/- 0.00002
          q  =    1.5818264              +/- 0.0000007 AU
          e  =    0.5439775              +/- 0.0000002
          a  =    3.4687466              +/- 0.0000006 AU
          n  =    0.15256159             +/- 0.00000004
          P  =    6.460                  +/- 0.0000017  years
         A1  =   +0.369                  +/- 0.017
         A2  =   -0.03777                +/- 0.00054

・ 星図

・ 1996年 7月 6日〜1997年 8月10日
・ 1997年 8月10日〜1998年12月 3日

・ 光度変化

        m1 = 7.5 + 5 logΔ + 20.0 log r  [ ,0]  (              〜1997年 9月29日)
        m1 = 8.5 + 5 logΔ + 15.0 log r  [0, ]  (1997年 9月29日〜              )

---------------------------------------------------------------------

軌道要素は村岡健治氏の計算によるものです。
星図は StellaNavigator Ver.2.0 for Windows (アストロアーツ 編著 / アスキー出版局刊) で作成したものです。
光度グラフはComet for Windowsで作成したものです。

---------------------------------------------------------------------

Copyright(C) 1995-2008 Seiichi Yoshida (comet@aerith.net). All rights reserved.